| time (UTC) | temp F | wind direction | speed knots | gust knots | rain 1hr in | rain 24hr in | rain mn in | humidity % | barometer mb |
| 20260904042225 | 70 | 360 | 0.0 | 0.0 | 0.00 | 0.45 | 0.00 | 95 | 1013.3 |
| 20260904041225 | 69 | 360 | 0.0 | 0.0 | 0.00 | 0.45 | 0.00 | 95 | 1013.4 |
| 20260904040204 | 69 | 360 | 0.0 | 0.0 | 0.00 | 0.45 | 0.00 | 95 | 1013.3 |
| 20260904035203 | 69 | 360 | 0.0 | 0.0 | 0.00 | 0.45 | 0.45 | 95 | 1013.2 |
| 20260904034204 | 69 | 360 | 0.0 | 0.0 | 0.00 | 0.45 | 0.45 | 95 | 1013.1 |
| 20260904033203 | 69 | 360 | 0.0 | 0.0 | 0.00 | 0.45 | 0.45 | 94 | 1013.1 |
| 20260904032205 | 70 | 360 | 0.0 | 0.0 | 0.00 | 0.45 | 0.45 | 95 | 1013.0 |
| 20260904031203 | 70 | 360 | 0.0 | 0.0 | 0.00 | 0.45 | 0.45 | 95 | 1012.8 |
| 20260904025204 | 70 | 360 | 0.0 | 0.0 | 0.00 | 0.45 | 0.45 | 94 | 1012.8 |
| 20260904024204 | 70 | 360 | 0.0 | 0.0 | 0.00 | 0.45 | 0.45 | 94 | 1012.6 |
| 20260904023204 | 70 | 360 | 0.0 | 0.0 | 0.00 | 0.45 | 0.45 | 94 | 1012.6 |
| 20260904022203 | 70 | 359 | 0.0 | 0.9 | 0.00 | 0.45 | 0.45 | 94 | 1012.6 |
| 20260904021226 | 70 | 360 | 0.0 | 0.0 | 0.00 | 0.45 | 0.45 | 94 | 1012.8 |
| 20260904020227 | 71 | 360 | 0.0 | 0.0 | 0.00 | 0.45 | 0.45 | 94 | 1012.9 |
| 20260904015205 | 71 | 359 | 0.0 | 1.7 | 0.00 | 0.45 | 0.45 | 94 | 1012.8 |
| 20260904014205 | 71 | 360 | 0.0 | 1.7 | 0.00 | 0.45 | 0.45 | 94 | 1012.7 |
| 20260904013204 | 72 | 359 | 2.6 | 4.3 | 0.00 | 0.45 | 0.45 | 94 | 1012.6 |
| 20260904012228 | 72 | 359 | 1.7 | 3.5 | 0.00 | 0.53 | 0.45 | 94 | 1012.5 |
| 20260904011204 | 73 | 359 | 0.0 | 3.5 | 0.00 | 0.54 | 0.45 | 94 | 1012.2 |
| 20260904010204 | 72 | 359 | 0.9 | 1.7 | 0.00 | 0.54 | 0.45 | 94 | 1011.9 |
| 20260904005203 | 73 | 359 | 0.9 | 2.6 | 0.03 | 0.55 | 0.45 | 94 | 1011.7 |
| 20260904004204 | 73 | 360 | 0.0 | 0.0 | 0.03 | 0.55 | 0.45 | 93 | 1011.8 |
| 20260904003224 | 73 | 360 | 0.0 | 1.7 | 0.03 | 0.55 | 0.45 | 93 | 1011.7 |
| 20260904002204 | 73 | 359 | 0.0 | 1.7 | 0.03 | 0.55 | 0.45 | 93 | 1011.3 |
| 20260904001205 | 73 | 359 | 0.0 | 1.7 | 0.01 | 0.55 | 0.43 | 92 | 1011.6 |
| 20260904000226 | 74 | 360 | 0.0 | 4.3 | 0.00 | 0.55 | 0.42 | 92 | 1011.7 |
| 20260903235204 | 75 | 359 | 0.0 | 10.4 | 0.40 | 0.55 | 0.40 | 92 | 1011.8 |
| 20260903234204 | 75 | 359 | 0.0 | 1.7 | 0.11 | 0.29 | 0.11 | 91 | 1011.5 |
| 20260903233225 | 75 | 274 | 0.0 | 2.6 | 0.00 | 0.21 | 0.00 | 91 | 1011.5 |
| 20260903232204 | 76 | 359 | 0.0 | 2.6 | 0.00 | 0.22 | 0.00 | 90 | 1011.7 |
| 20260903231204 | 76 | 359 | 0.0 | 5.2 | 0.00 | 0.44 | 0.00 | 90 | 1011.6 |
| 20260903230203 | 77 | 359 | 4.3 | 7.0 | 0.00 | 0.33 | 0.00 | 89 | 1012.0 |
| 20260903225204 | 77 | 360 | 0.0 | 0.0 | 0.00 | 0.44 | 0.00 | 88 | 1011.5 |
| 20260903224204 | 77 | 360 | 0.0 | 0.0 | 0.00 | 0.44 | 0.00 | 88 | 1011.7 |
| 20260903223204 | 77 | 360 | 0.0 | 0.0 | 0.00 | 0.44 | 0.00 | 87 | 1011.6 |
| 20260903222203 | 77 | 360 | 0.0 | 0.0 | 0.00 | 0.44 | 0.00 | 87 | 1011.6 |
| 20260903221226 | 78 | 360 | 0.0 | 0.0 | 0.00 | 0.44 | 0.00 | 87 | 1011.6 |
| 20260903220205 | 78 | 360 | 0.0 | 0.0 | 0.00 | 0.44 | 0.00 | 86 | 1011.2 |
| 20260903215226 | 78 | 360 | 0.0 | 0.0 | 0.00 | 0.44 | 0.00 | 86 | 1011.3 |
| 20260903214203 | 78 | 360 | 0.0 | 0.0 | 0.00 | 0.44 | 0.00 | 86 | 1011.0 |
| 20260903213204 | 78 | 360 | 0.0 | 0.0 | 0.00 | 0.44 | 0.00 | 86 | 1010.8 |
| 20260903212205 | 78 | 360 | 0.0 | 0.0 | 0.00 | 0.44 | 0.00 | 86 | 1011.0 |
| 20260903211225 | 78 | 360 | 0.0 | 0.0 | 0.00 | 0.44 | 0.00 | 85 | 1011.1 |
| 20260903210204 | 79 | 360 | 0.0 | 0.9 | 0.00 | 0.44 | 0.00 | 85 | 1011.4 |
| 20260903205204 | 79 | 359 | 0.0 | 5.2 | 0.00 | 0.44 | 0.00 | 85 | 1011.3 |
| 20260903204204 | 79 | 359 | 0.9 | 4.3 | 0.00 | 0.44 | 0.00 | 85 | 1011.3 |
| 20260903203204 | 79 | 359 | 0.9 | 4.3 | 0.00 | 0.44 | 0.00 | 84 | 1011.5 |
| 20260903202225 | 79 | 359 | 0.9 | 5.2 | 0.00 | 0.44 | 0.00 | 84 | 1011.8 |
| 20260903201203 | 79 | 359 | 0.9 | 3.5 | 0.00 | 0.44 | 0.00 | 83 | 1011.8 |
| 20260903200204 | 80 | 359 | 0.0 | 5.2 | 0.00 | 0.44 | 0.00 | 82 | 1011.8 |
| 20260903195203 | 81 | 357 | 1.7 | 4.3 | 0.00 | 0.44 | 0.00 | 81 | 1011.9 |
| 20260903194204 | 81 | 359 | 0.9 | 4.3 | 0.00 | 0.44 | 0.00 | 81 | 1011.8 |
| 20260903193203 | 82 | 359 | 0.0 | 7.0 | 0.00 | 0.44 | 0.00 | 80 | 1011.7 |
| 20260903192204 | 82 | 359 | 1.7 | 7.0 | 0.00 | 0.44 | 0.00 | 80 | 1011.8 |
| 20260903191204 | 82 | 359 | 3.5 | 7.8 | 0.00 | 0.44 | 0.00 | 80 | 1012.0 |
| 20260903190204 | 82 | 359 | 2.6 | 7.8 | 0.00 | 0.44 | 0.00 | 81 | 1012.1 |
| 20260903185226 | 82 | 359 | 2.6 | 9.6 | 0.00 | 0.44 | 0.00 | 80 | 1012.1 |
| 20260903184204 | 82 | 359 | 5.2 | 11.3 | 0.00 | 0.44 | 0.00 | 80 | 1012.0 |
| 20260903183203 | 81 | 359 | 1.7 | 7.8 | 0.00 | 0.44 | 0.00 | 82 | 1012.2 |
| 20260903182226 | 81 | 359 | 1.7 | 9.6 | 0.00 | 0.44 | 0.00 | 83 | 1012.2 |
| 20260903181204 | 80 | 358 | 0.9 | 4.3 | 0.00 | 0.44 | 0.00 | 84 | 1012.2 |
| 20260903180204 | 80 | 359 | 1.7 | 8.7 | 0.00 | 0.44 | 0.00 | 85 | 1012.3 |
| 20260903175205 | 80 | 359 | 0.9 | 8.7 | 0.00 | 0.44 | 0.00 | 86 | 1012.5 |
| 20260903174204 | 79 | 359 | 0.0 | 3.5 | 0.00 | 0.44 | 0.00 | 87 | 1012.5 |
| 20260903173205 | 78 | 352 | 1.7 | 3.5 | 0.00 | 0.44 | 0.00 | 87 | 1012.6 |
| 20260903172226 | 78 | 354 | 0.9 | 7.8 | 0.00 | 0.44 | 0.00 | 87 | 1012.6 |
| 20260903171203 | 78 | 360 | 0.0 | 4.3 | 0.00 | 0.44 | 0.00 | 87 | 1012.6 |
| 20260903170204 | 78 | 359 | 1.7 | 7.8 | 0.00 | 0.44 | 0.00 | 87 | 1012.7 |
| 20260903165224 | 79 | 358 | 3.5 | 9.6 | 0.00 | 0.44 | 0.00 | 88 | 1012.7 |
| 20260903164225 | 78 | 359 | 0.9 | 5.2 | 0.00 | 0.44 | 0.00 | 88 | 1012.6 |
| 20260903163203 | 78 | 359 | 0.0 | 5.2 | 0.00 | 0.44 | 0.00 | 88 | 1012.6 |
| 20260903162204 | 78 | 359 | 0.9 | 4.3 | 0.00 | 0.44 | 0.00 | 87 | 1012.8 |
| 20260903161203 | 77 | 3 | 0.9 | 5.2 | 0.00 | 0.44 | 0.00 | 88 | 1012.8 |
| 20260903160204 | 77 | 359 | 0.9 | 4.3 | 0.00 | 0.44 | 0.00 | 89 | 1012.9 |
| 20260903155203 | 77 | 358 | 0.9 | 5.2 | 0.00 | 0.44 | 0.00 | 89 | 1013.0 |
| 20260903154205 | 77 | 359 | 0.9 | 3.5 | 0.00 | 0.44 | 0.00 | 89 | 1013.2 |
| 20260903153224 | 77 | 359 | 0.0 | 5.2 | 0.00 | 0.44 | 0.00 | 90 | 1013.2 |
| 20260903152204 | 76 | 359 | 1.7 | 7.0 | 0.00 | 0.44 | 0.00 | 91 | 1013.3 |
| 20260903151203 | 76 | 359 | 3.5 | 9.6 | 0.00 | 0.44 | 0.00 | 93 | 1013.3 |
| 20260903150205 | 75 | 359 | 0.9 | 7.0 | 0.00 | 0.44 | 0.00 | 93 | 1013.2 |
| 20260903145203 | 75 | 356 | 0.9 | 4.3 | 0.00 | 0.44 | 0.00 | 93 | 1013.3 |
| 20260903144203 | 74 | 359 | 1.7 | 4.3 | 0.00 | 0.44 | 0.00 | 94 | 1013.3 |
| 20260903143225 | 74 | 359 | 2.6 | 8.7 | 0.00 | 0.44 | 0.00 | 95 | 1013.3 |
| 20260903142208 | 74 | 350 | 0.9 | 5.2 | 0.00 | 0.44 | 0.00 | 95 | 1013.3 |
| 20260903141203 | 73 | 359 | 1.7 | 7.8 | 0.00 | 0.44 | 0.00 | 95 | 1013.2 |
| 20260903140203 | 73 | 359 | 0.0 | 7.8 | 0.00 | 0.44 | 0.00 | 95 | 1013.3 |
| 20260903135204 | 73 | 359 | 1.7 | 5.2 | 0.00 | 0.44 | 0.00 | 96 | 1013.3 |
| 20260903134207 | 73 | 359 | 3.5 | 7.8 | 0.00 | 0.44 | 0.00 | 96 | 1013.3 |
| 20260903133204 | 72 | 358 | 1.7 | 4.3 | 0.00 | 0.44 | 0.00 | 96 | 1013.3 |
| 20260903132203 | 72 | 359 | 0.0 | 7.8 | 0.00 | 0.44 | 0.00 | 96 | 1013.3 |
| 20260903131246 | 72 | 359 | 0.9 | 7.8 | 0.00 | 0.44 | 0.00 | 96 | 1013.5 |
| 20260903130204 | 71 | 359 | 2.6 | 5.2 | 0.00 | 0.44 | 0.00 | 96 | 1013.5 |
| 20260903125247 | 71 | 359 | 0.9 | 7.0 | 0.00 | 0.44 | 0.00 | 96 | 1013.6 |
| 20260903124204 | 71 | 359 | 1.7 | 4.3 | 0.00 | 0.44 | 0.00 | 96 | 1013.8 |
| 20260903123205 | 71 | 359 | 1.7 | 3.5 | 0.00 | 0.44 | 0.00 | 96 | 1013.8 |
| 20260903122204 | 70 | 359 | 0.9 | 2.6 | 0.00 | 0.44 | 0.00 | 96 | 1013.8 |
| 20260903121205 | 70 | 360 | 0.0 | 1.7 | 0.00 | 0.44 | 0.00 | 96 | 1013.8 |
| 20260903120204 | 70 | 279 | 0.0 | 5.2 | 0.00 | 0.44 | 0.00 | 96 | 1013.8 |
| 20260903115246 | 70 | 359 | 0.9 | 4.3 | 0.00 | 0.44 | 0.00 | 96 | 1013.7 |
| 20260903114204 | 70 | 356 | 1.7 | 4.3 | 0.00 | 0.44 | 0.00 | 96 | 1013.5 |
| 20260903113203 | 69 | 335 | 1.7 | 5.2 | 0.00 | 0.44 | 0.00 | 96 | 1013.3 |
| 20260903112225 | 69 | 359 | 1.7 | 3.5 | 0.00 | 0.44 | 0.00 | 96 | 1013.2 |
| 20260903111203 | 68 | 360 | 0.0 | 1.7 | 0.00 | 0.44 | 0.00 | 95 | 1013.2 |
| 20260903110204 | 68 | 360 | 0.0 | 0.9 | 0.00 | 0.44 | 0.00 | 95 | 1013.0 |
| 20260903105203 | 68 | 359 | 0.0 | 0.9 | 0.00 | 0.44 | 0.00 | 95 | 1012.8 |
| 20260903104226 | 68 | 360 | 0.0 | 0.0 | 0.00 | 0.44 | 0.00 | 95 | 1012.5 |
| 20260903103227 | 68 | 360 | 0.0 | 0.9 | 0.00 | 0.44 | 0.00 | 95 | 1012.4 |
| 20260903102204 | 68 | 360 | 0.0 | 0.0 | 0.00 | 0.44 | 0.00 | 95 | 1012.5 |
| 20260903101248 | 69 | 360 | 0.0 | 0.0 | 0.00 | 0.44 | 0.00 | 95 | 1012.5 |
| 20260903100224 | 69 | 359 | 0.0 | 1.7 | 0.00 | 0.44 | 0.00 | 95 | 1012.3 |
| 20260903095204 | 69 | 360 | 0.0 | 0.0 | 0.00 | 0.44 | 0.00 | 95 | 1012.3 |
| 20260903094203 | 69 | 360 | 0.0 | 0.0 | 0.00 | 0.44 | 0.00 | 95 | 1012.2 |
| 20260903093204 | 69 | 360 | 0.0 | 0.9 | 0.00 | 0.44 | 0.00 | 95 | 1012.2 |
| 20260903092203 | 69 | 359 | 0.0 | 0.9 | 0.00 | 0.44 | 0.00 | 95 | 1011.9 |
| 20260903091204 | 69 | 360 | 0.0 | 0.0 | 0.00 | 0.44 | 0.00 | 95 | 1011.9 |
| 20260903090207 | 69 | 360 | 0.0 | 0.0 | 0.00 | 0.44 | 0.00 | 95 | 1011.9 |
| 20260903085203 | 69 | 360 | 0.0 | 0.0 | 0.00 | 0.44 | 0.00 | 95 | 1011.8 |
| 20260903084205 | 69 | 360 | 0.0 | 0.0 | 0.00 | 0.44 | 0.00 | 95 | 1011.8 |
| 20260903083204 | 69 | 360 | 0.0 | 0.0 | 0.00 | 0.44 | 0.00 | 95 | 1011.9 |
| 20260903082225 | 69 | 360 | 0.0 | 0.0 | 0.00 | 0.44 | 0.00 | 95 | 1011.9 |
| 20260903081205 | 69 | 360 | 0.0 | 1.7 | 0.00 | 0.44 | 0.00 | 95 | 1011.7 |
| 20260903080203 | 69 | 359 | 0.9 | 2.6 | 0.00 | 0.44 | 0.00 | 95 | 1011.7 |
| 20260903075204 | 69 | 360 | 0.0 | 2.6 | 0.00 | 0.44 | 0.00 | 95 | 1011.7 |
| 20260903074245 | 69 | 360 | 0.0 | 1.7 | 0.00 | 0.44 | 0.00 | 95 | 1011.6 |
| 20260903073224 | 69 | 359 | 0.0 | 2.6 | 0.00 | 0.44 | 0.00 | 95 | 1011.6 |
| 20260903072204 | 69 | 359 | 0.0 | 1.7 | 0.00 | 0.44 | 0.00 | 95 | 1011.6 |
| 20260903071204 | 70 | 359 | 0.0 | 1.7 | 0.00 | 0.44 | 0.00 | 95 | 1011.5 |
| 20260903070203 | 70 | 353 | 0.9 | 4.3 | 0.00 | 0.44 | 0.00 | 95 | 1011.6 |
| 20260903065204 | 70 | 359 | 0.9 | 7.0 | 0.00 | 0.44 | 0.00 | 95 | 1012.0 |
| 20260903064203 | 70 | 360 | 0.0 | 3.5 | 0.00 | 0.44 | 0.00 | 95 | 1012.0 |
| 20260903063204 | 70 | 359 | 0.9 | 3.5 | 0.00 | 0.44 | 0.00 | 95 | 1012.0 |
| 20260903062205 | 70 | 359 | 1.7 | 4.3 | 0.00 | 0.44 | 0.00 | 95 | 1012.1 |
| 20260903061203 | 70 | 359 | 0.0 | 3.5 | 0.00 | 0.44 | 0.00 | 95 | 1012.1 |
| 20260903060205 | 70 | 359 | 0.9 | 4.3 | 0.00 | 0.44 | 0.00 | 95 | 1012.0 |
| 20260903055203 | 69 | 359 | 0.9 | 3.5 | 0.00 | 0.44 | 0.00 | 95 | 1011.7 |
| 20260903054204 | 70 | 281 | 0.9 | 2.6 | 0.00 | 0.44 | 0.00 | 95 | 1011.7 |
| 20260903053203 | 70 | 350 | 0.9 | 5.2 | 0.00 | 0.44 | 0.00 | 95 | 1011.9 |
| 20260903051203 | 70 | 359 | 1.7 | 5.2 | 0.00 | 0.44 | 0.00 | 95 | 1011.7 |
| 20260903050204 | 70 | 359 | 1.7 | 5.2 | 0.00 | 0.44 | 0.00 | 95 | 1011.9 |
| 20260903045203 | 69 | 359 | 0.9 | 2.6 | 0.00 | 0.44 | 0.00 | 95 | 1011.9 |
| 20260903044203 | 69 | 359 | 0.0 | 2.6 | 0.00 | 0.44 | 0.00 | 95 | 1011.8 |